Location: Obersdorf
(47.4079°N, 10.2781°E)
Time: 02:57:00
(UTC+02:00)

COSMOS 2251 DEB - Pass Details

Date: 07 July 2022
Orbit: 490 x 568 km, 73.9° (Epoch: 16 August)

Event Time Altitude Azimuth Distance (km) Brightness Sun altitude
Exits shadow 03:23:19 - 150° (SSE) 1,952 ? -15.0°
Reaches altitude 10° 03:23:40 10° 147° (SSE) 1,846 ? -15.0°
Maximum altitude 03:26:39 20° 100° (E) 1,321 ? -14.7°
Drops below altitude 10° 03:29:37 10° 53° (NE) 1,823 ? -14.5°
Sets 03:32:13 0° 36° (NE) 2,703 ? -14.3°
